Weather History for Jordan, MT

Change the Weather History Date:

Sunday, November 18, 2012

  Actual Average Record
Temperature  
Mean Temperature 40 °F 29 °F  
Max Temperature 51 °F 42 °F 72 °F (2008)
Min Temperature 28 °F 16 °F -13 °F (1986)
Degree Days  
Heating Degree Days 25 36  
Month to date heating degree days 567 576  
Since 1 July heating degree days 1384 1549  
Cooling Degree Days 0 0  
Month to date cooling degree days 0 0  
Year to date cooling degree days 728 421  
Moisture  
Dew Point 30 °F    
Average Humidity 73    
Maximum Humidity 92    
Minimum Humidity 54    
Precipitation  
Precipitation 0.00 in 0.00 in 0.33 in (1985)
Month to date precipitation 0.74 0.27  
Year to date precipitation 7.69 12.29  
Snow  
Snow 0.00 in - - ()
Month to date snowfall 0.0  
Since 1 July snowfall 0.0  
Since 1 September snowfall 0.0  
Snow Depth 0.00 in    
Sea Level Pressure  
Sea Level Pressure 29.86 in    
Wind  
Wind Speed 4 mph (NW)    
Max Wind Speed 14 mph    
Max Gust Speed 18 mph    
T = Trace of Precipitation, MM = Missing Value Source: NWS Daily Summary

Daily Weather History Graph

Daily Weather History Graph

Search for Another Location

Airport:

Trip Planner

Search our weather history database for the weather conditions in past years. The results will help you decide how hot, cold, wet, or windy it might be!

Date:

Astronomy

Nov. 18, 2012 Rise Set
Actual Time 7:17 AM MST 4:28 PM MST
Civil Twilight 6:43 AM MST 5:02 PM MST
Nautical Twilight 6:06 AM MST 5:39 PM MST
Astronomical Twilight 5:29 AM MST 6:15 PM MST
Moon 11:41 AM MST 9:57 PM MST
Length of Visible Light 10h 18m
Length of Day
9h 11m
Waxing Crescent, 31% of the Moon is Illuminated
Nov 18
Waxing Crescent
Nov 20
First Quarter
Nov 28
Full
Dec 6
Last Quarter
Dec 13
New

Hourly Weather History & Observations

Time (MST) Temp. Windchill Dew Point Humidity Pressure Visibility Wind Dir Wind Speed Gust Speed Precip Events Conditions
12:48 AM 39.9 °F 36.7 °F 30.9 °F 70% 29.79 in - SE 4.6 mph - N/A   Unknown
1:48 AM 41.0 °F 35.8 °F 30.9 °F 67% 29.77 in - ENE 8.1 mph - N/A   Unknown
2:48 AM 37.9 °F 33.5 °F 30.0 °F 73% 29.76 in - ENE 5.8 mph - N/A   Unknown
3:48 AM 34.0 °F 31.0 °F 28.0 °F 79% 29.75 in - NNE 3.5 mph - N/A   Unknown
4:48 AM 34.0 °F 28.8 °F 28.9 °F 82% 29.74 in - East 5.8 mph - N/A   Unknown
5:48 AM 28.0 °F - 26.1 °F 92% 29.75 in - Calm Calm - N/A   Unknown
6:48 AM 30.9 °F - 27.0 °F 85% 29.74 in - Calm Calm - N/A   Unknown
7:48 AM 30.0 °F - 27.0 °F 88% 29.74 in - Calm Calm - N/A   Unknown
8:48 AM 34.0 °F - 30.0 °F 85% 29.73 in - Calm Calm - N/A   Unknown
9:48 AM 39.9 °F - 33.1 °F 77% 29.75 in - Calm Calm - N/A   Unknown
10:48 AM 48.0 °F - 34.0 °F 58% 29.74 in - South 5.8 mph - N/A   Unknown
11:48 AM 51.1 °F - 35.1 °F 54% 29.76 in - West 5.8 mph - N/A   Unknown
12:48 PM 51.1 °F - 36.0 °F 56% 29.77 in - West 8.1 mph - N/A   Unknown
1:48 PM 46.9 °F - 34.0 °F 61% 29.81 in - WNW 9.2 mph - N/A   Unknown
2:48 PM 46.9 °F - 32.0 °F 56% 29.84 in - WNW 9.2 mph - N/A   Unknown
3:48 PM 45.0 °F 40.1 °F 30.0 °F 56% 29.90 in - NW 9.2 mph - N/A   Unknown
4:48 PM 42.1 °F - 30.0 °F 62% 29.94 in - Calm Calm - N/A   Unknown
5:48 PM 41.0 °F - 28.9 °F 62% 29.98 in - Calm Calm - N/A   Unknown
6:48 PM 36.0 °F 32.1 °F 28.9 °F 76% 30.00 in - SW 4.6 mph - N/A   Unknown
7:48 PM 36.0 °F - 28.9 °F 76% 30.05 in - Calm Calm - N/A   Unknown
8:48 PM 35.1 °F 32.2 °F 28.0 °F 76% 30.04 in - North 3.5 mph - N/A   Unknown
9:48 PM 30.0 °F 26.5 °F 27.0 °F 88% 30.07 in - WNW 3.5 mph - N/A   Unknown
10:48 PM 28.9 °F 25.2 °F 26.1 °F 89% 30.06 in - West 3.5 mph - N/A   Unknown
11:48 PM 32.0 °F - 28.0 °F 85% 30.07 in - Calm Calm - N/A   Unknown